AirNav  
 
 722 users online  

20FD Pratt Airport
Greenville, Florida, USA

GOING TO GREENVILLE?


FAA INFORMATION EFFECTIVE 25 MARCH 2021

Location

FAA Identifier: 20FD
Lat/Long: 30-25-31.7510N 083-34-33.5460W
30-25.529183N 083-34.559100W
30.4254864,-83.5759850
(estimated)
Elevation: 100 ft. / 30 m (estimated)
Variation: 02W (1985)
From city: 5 miles SE of GREENVILLE, FL
Time zone: UTC -4 (UTC -5 during Standard Time)
Zip code: 32340

Airport Operations

Airport use: Private use. Permission required prior to landing
Activation date: 05/1991
Control tower: no
ARTCC: JACKSONVILLE CENTER
FSS: GAINESVILLE FLIGHT SERVICE STATION
Attendance: UNATNDD
Wind indicator: yes
Segmented circle: no

Nearby radio navigation aids

VOR radial/distance  VOR name  Freq  Var
GEFr124/13.1GREENVILLE VORTAC109.0001E
OTKr218/26.2VALDOSTA VOR/DME114.8002W

 
NDB name  Hdg/Dist  Freq  Var  ID
PATON163/34.424505WGTP --. - .--.

Airport Services

Runway Information

Runway 17/35

Dimensions: 3070 x 100 ft. / 936 x 30 m
Surface: turf
RUNWAY 17  RUNWAY 35
Traffic pattern: leftleft
Displaced threshold: 800 ft.800 ft.
Obstructions: 50 ft. trees, 350 ft. from runway40 ft. trees, 200 ft. from runway

Airport Ownership and Management from official FAA records

Ownership: Privately-owned
Owner: DCB & COMPANY, INC
ROUTE 4, BOX 264B
GREENVILLE, FL 32338
Phone 850-948-3090
Manager: DOUGLAS C. BALLARD
ROUTE 4, BOX 264B
GREENVILLE, FL 32338
Phone 850-948-3090

Airport Operational Statistics

Aircraft based on the field: 1
Single engine airplanes: 1
    

Additional Remarks

FOR CD CTC TALLAHASSEE APCH AT 850-942-8311, WHEN APCH CLSD CTC JACKSONVILLE ARTCC AT 904-845-1592.

Instrument Procedures

There are no published instrument procedures at 20FD.

Some nearby airports with instrument procedures:

KFPY - Perry-Foley Airport (21 nm S)
4J5 - Quitman Brooks County Airport (23 nm N)
KVLD - Valdosta Regional Airport (26 nm NE)
24J - Suwannee County Airport (30 nm E)
KTVI - Thomasville Regional Airport (33 nm NW)
 
Loc | Ops | Rwys | IFR | FBO | Links
Com | Nav | Svcs | Stats | Notes
Area around 20FD (Pratt Airport)
 
Road maps at: MapQuest Bing Google
 
Aerial photo
No photo
 
Sectional chart

 
Airport distance calculator
Flying to Pratt Airport? Find the distance to fly.

From to 20FD

Sunrise and sunset
Times for 15-Apr-2021
 Local
(UTC-4)
 Zulu
(UTC)
Morning civil twilight06:4310:43
Sunrise07:0811:08
Sunset20:0100:01
Evening civil twilight20:2500:25

Current date and time
Zulu (UTC)  15-Apr-2021 04:02:31
Local (UTC-4)  15-Apr-2021 00:02:31
 
METAR
KFPY 
21nm S 
150355Z AUTO 19003KT 10SM BKN100 OVC120 22/21 A3001 RMK AO2 T02150210 402850160
KVLD 
26nm NE 
150353Z 00000KT 10SM OVC100 21/17 A3001 RMK AO2 RAB35E44 SLP167 P0000 T02060167
K24J 
30nm E 
150355Z AUTO 00000KT 10SM FEW050 FEW075 OVC100 21/19 A3001 RMK A01
KTVI 
33nm NW 
150355Z AUTO 00000KT 10SM OVC095 19/15 A3002 RMK AO2
KVAD 
38nm NE 
150356Z AUTO 27003KT 10SM OVC100 21/12 A3000 RMK AO2 SLP159 T02110122 $
KTLH 
40nm W 
150353Z AUTO 11004KT 10SM SCT075 BKN090 19/13 A2998 RMK AO2 SLP151 T01940133
KMGR 
41nm N 
150330Z AUTO 00000KT 10SM SCT090 18/15 A3002 RMK AO2
TAF
KVLD 
26nm NE 
141720Z 1418/1518 21008KT P6SM SCT250 FM150000 21004KT P6SM VCSH BKN100 OVC250 FM150400 00000KT P6SM SCT080 BKN120 FM151100 19003KT P6SM VCSH BKN012 OVC070 TEMPO 1514/1518 2SM TSRA BR SCT008 OVC012CB
NOTAMs
Click for the latest NOTAMs
NOTAMs are issued by the DoD/FAA and will open in a separate window not controlled by AirNav.

 

 
 

Would you like to see your business listed on this page?

 If your business provides an interesting product or service to pilots, flight crews, aircraft, or users of the Pratt Airport, you should consider listing it here.  To start the listing process, click on the button below
 
Add a business
 

Other Pages about Pratt Airport

Update a link
 
Copyright © AirNav, LLC. All rights reserved. Privacy Policy  Contact